| time (UTC) | temp C | wind direction | speed KPH | gust KPH | rain 1hr cm | rain 24hr cm | rain mn cm | humidity % | barometer mb |
| 20260507070009 | 11 | 93 | 6.4 | 9.7 | 0.00 | 0.30 | 0.00 | 83 | 1018.7 |
| 20260507070004 | 11 | 93 | 4.8 | 9.7 | 0.00 | 0.30 | 0.00 | 83 | 1014.2 |
| 20260507065559 | 11 | 75 | 4.8 | 9.7 | 0.00 | 0.30 | 0.00 | 83 | 1014.1 |
| 20260507065100 | 11 | 89 | 4.8 | 9.7 | 0.00 | 0.30 | 0.00 | 84 | 1014.1 |
| 20260507064603 | 10 | 120 | 4.8 | 9.7 | 0.00 | 0.30 | 0.00 | 84 | 1014.1 |
| 20260507064500 | 10 | 94 | 4.8 | 9.7 | 0.00 | 0.30 | 0.00 | 84 | 1018.7 |
| 20260507064101 | 10 | 51 | 3.2 | 11.3 | 0.00 | 0.30 | 0.00 | 85 | 1014.2 |
| 20260507063600 | 10 | 81 | 6.4 | 11.3 | 0.00 | 0.30 | 0.00 | 85 | 1014.2 |
| 20260507063500 | 10 | 129 | 6.4 | 11.3 | 0.00 | 0.30 | 0.00 | 85 | 1018.7 |
| 20260507063100 | 10 | 113 | 6.4 | 11.3 | 0.00 | 0.30 | 0.00 | 85 | 1014.2 |
| 20260507063002 | 10 | 73 | 6.4 | 11.3 | 0.00 | 0.30 | 0.00 | 85 | 1018.8 |
| 20260507062559 | 10 | 77 | 6.4 | 12.9 | 0.00 | 0.30 | 0.00 | 86 | 1014.2 |
| 20260507062500 | 10 | 88 | 6.4 | 12.9 | 0.00 | 0.30 | 0.00 | 86 | 1018.7 |
| 20260507062100 | 10 | 105 | 4.8 | 12.9 | 0.00 | 0.30 | 0.00 | 87 | 1014.2 |
| 20260507062001 | 10 | 65 | 6.4 | 12.9 | 0.00 | 0.30 | 0.00 | 87 | 1018.7 |
| 20260507061600 | 9 | 68 | 3.2 | 11.3 | 0.00 | 0.30 | 0.00 | 87 | 1014.2 |
| 20260507061502 | 9 | 94 | 4.8 | 11.3 | 0.00 | 0.30 | 0.00 | 87 | 1018.8 |
| 20260507061101 | 9 | 64 | 4.8 | 9.7 | 0.00 | 0.30 | 0.00 | 87 | 1014.3 |
| 20260507061001 | 9 | 79 | 4.8 | 9.7 | 0.00 | 0.30 | 0.00 | 88 | 1018.9 |
| 20260507060600 | 9 | 65 | 4.8 | 9.7 | 0.00 | 0.30 | 0.00 | 88 | 1014.4 |
| 20260507060007 | 8 | 65 | 4.8 | 11.3 | 0.00 | 0.30 | 0.00 | 89 | 1018.9 |
| 20260507055559 | 8 | 115 | 3.2 | 11.3 | 0.00 | 0.48 | 0.00 | 89 | 1014.3 |
| 20260507055500 | 8 | 359 | 4.8 | 11.3 | 0.00 | 0.48 | 0.00 | 89 | 1018.9 |
| 20260507055059 | 8 | 75 | 3.2 | 8.0 | 0.00 | 0.48 | 0.00 | 90 | 1014.3 |
| 20260507055001 | 8 | 108 | 4.8 | 8.0 | 0.00 | 0.48 | 0.00 | 90 | 1018.9 |
| 20260507054559 | 8 | 72 | 3.2 | 9.7 | 0.00 | 0.48 | 0.00 | 89 | 1014.3 |
| 20260507054501 | 8 | 61 | 4.8 | 11.3 | 0.00 | 0.48 | 0.00 | 89 | 1018.9 |
| 20260507054059 | 8 | 114 | 4.8 | 11.3 | 0.00 | 0.48 | 0.00 | 89 | 1014.4 |
| 20260507054002 | 8 | 86 | 6.4 | 11.3 | 0.00 | 0.48 | 0.00 | 89 | 1018.9 |
| 20260507053600 | 8 | 117 | 3.2 | 11.3 | 0.00 | 0.48 | 0.00 | 90 | 1014.3 |
| 20260507053501 | 8 | 63 | 6.4 | 11.3 | 0.00 | 0.48 | 0.00 | 89 | 1018.9 |
| 20260507053100 | 8 | 82 | 4.8 | 11.3 | 0.00 | 0.48 | 0.00 | 89 | 1014.2 |
| 20260507053003 | 8 | 77 | 6.4 | 11.3 | 0.00 | 0.48 | 0.00 | 89 | 1018.8 |
| 20260507052601 | 8 | 65 | 4.8 | 9.7 | 0.00 | 0.48 | 0.00 | 89 | 1014.3 |
| 20260507052501 | 8 | 70 | 4.8 | 11.3 | 0.00 | 0.48 | 0.00 | 89 | 1018.8 |
| 20260507052100 | 8 | 78 | 4.8 | 11.3 | 0.00 | 0.48 | 0.00 | 89 | 1014.3 |
| 20260507052001 | 8 | 71 | 4.8 | 11.3 | 0.00 | 0.48 | 0.00 | 89 | 1018.8 |
| 20260507051602 | 8 | 117 | 4.8 | 11.3 | 0.00 | 0.48 | 0.00 | 89 | 1014.3 |
| 20260507051501 | 8 | 95 | 4.8 | 11.3 | 0.00 | 0.48 | 0.00 | 89 | 1018.8 |
| 20260507051103 | 8 | 66 | 4.8 | 8.0 | 0.00 | 0.48 | 0.00 | 89 | 1014.4 |
| 20260507051003 | 8 | 105 | 4.8 | 8.0 | 0.00 | 0.48 | 0.00 | 89 | 1018.9 |
| 20260507050603 | 8 | 113 | 3.2 | 8.0 | 0.00 | 0.48 | 0.00 | 89 | 1014.3 |
| 20260507050501 | 8 | 108 | 3.2 | 8.0 | 0.00 | 0.48 | 0.00 | 89 | 1018.9 |
| 20260507050100 | 8 | 96 | 1.6 | 8.0 | 0.00 | 0.48 | 0.00 | 89 | 1014.3 |
| 20260507050006 | 8 | 111 | 3.2 | 8.0 | 0.00 | 0.48 | 0.00 | 89 | 1018.8 |
| 20260507050002 | 8 | 111 | 3.2 | 8.0 | 0.00 | 0.48 | 0.00 | 89 | 1014.3 |
| 20260507045606 | 8 | 82 | 3.2 | 8.0 | 0.00 | 0.53 | 0.00 | 89 | 1014.2 |
| 20260507045500 | 8 | 119 | 4.8 | 8.0 | 0.00 | 0.53 | 0.00 | 89 | 1018.8 |
| 20260507045059 | 8 | 34 | 1.6 | 9.7 | 0.00 | 0.53 | 0.00 | 90 | 1014.2 |
| 20260507045002 | 8 | 86 | 4.8 | 9.7 | 0.00 | 0.53 | 0.00 | 89 | 1018.7 |
| 20260507044602 | 8 | 109 | 3.2 | 9.7 | 0.00 | 0.53 | 0.00 | 89 | 1014.1 |
| 20260507044500 | 8 | 99 | 4.8 | 9.7 | 0.00 | 0.53 | 0.00 | 89 | 1018.7 |
| 20260507044104 | 8 | 72 | 3.2 | 11.3 | 0.00 | 0.53 | 0.00 | 90 | 1014.1 |
| 20260507044001 | 8 | 110 | 4.8 | 11.3 | 0.00 | 0.53 | 0.00 | 90 | 1018.7 |
| 20260507043559 | 8 | 84 | 4.8 | 11.3 | 0.00 | 0.53 | 0.00 | 89 | 1014.1 |
| 20260507043501 | 8 | 73 | 4.8 | 11.3 | 0.00 | 0.53 | 0.00 | 89 | 1018.6 |
| 20260507043103 | 8 | 94 | 3.2 | 9.7 | 0.00 | 0.53 | 0.00 | 90 | 1014.2 |
| 20260507043002 | 8 | 94 | 4.8 | 9.7 | 0.00 | 0.53 | 0.00 | 90 | 1018.7 |
| 20260507042600 | 8 | 91 | 3.2 | 11.3 | 0.00 | 0.53 | 0.00 | 90 | 1014.2 |
| 20260507042500 | 8 | 93 | 4.8 | 11.3 | 0.00 | 0.53 | 0.00 | 90 | 1018.7 |
| 20260507042059 | 8 | 96 | 4.8 | 11.3 | 0.00 | 0.53 | 0.00 | 90 | 1014.2 |
| 20260507042002 | 8 | 94 | 4.8 | 11.3 | 0.00 | 0.53 | 0.00 | 89 | 1018.7 |
| 20260507041601 | 8 | 69 | 4.8 | 12.9 | 0.00 | 0.53 | 0.00 | 90 | 1014.2 |
| 20260507041501 | 8 | 95 | 6.4 | 12.9 | 0.00 | 0.53 | 0.00 | 90 | 1018.7 |
| 20260507041100 | 8 | 76 | 4.8 | 12.9 | 0.00 | 0.53 | 0.00 | 90 | 1014.2 |
| 20260507040602 | 8 | 66 | 4.8 | 9.7 | 0.00 | 0.53 | 0.00 | 90 | 1014.3 |
| 20260507040500 | 8 | 87 | 4.8 | 11.3 | 0.00 | 0.53 | 0.00 | 90 | 1018.8 |
| 20260507040100 | 8 | 65 | 3.2 | 11.3 | 0.00 | 0.53 | 0.00 | 90 | 1014.3 |
| 20260507040005 | 8 | 101 | 6.4 | 11.3 | 0.00 | 0.53 | 0.00 | 90 | 1018.8 |
| 20260507040002 | 8 | 101 | 3.2 | 11.3 | 0.00 | 0.53 | 0.00 | 90 | 1014.3 |
| 20260507035559 | 8 | 81 | 4.8 | 11.3 | 0.00 | 0.56 | 0.00 | 90 | 1014.3 |
| 20260507035102 | 8 | 70 | 4.8 | 9.7 | 0.00 | 0.56 | 0.00 | 90 | 1014.4 |
| 20260507035001 | 8 | 95 | 4.8 | 9.7 | 0.00 | 0.56 | 0.00 | 90 | 1018.9 |
| 20260507034600 | 8 | 92 | 3.2 | 9.7 | 0.00 | 0.56 | 0.00 | 90 | 1014.4 |
| 20260507034502 | 8 | 105 | 4.8 | 9.7 | 0.00 | 0.56 | 0.00 | 90 | 1018.9 |
| 20260507034100 | 8 | 95 | 3.2 | 9.7 | 0.00 | 0.56 | 0.00 | 89 | 1014.4 |
| 20260507033600 | 8 | 81 | 3.2 | 9.7 | 0.00 | 0.56 | 0.00 | 89 | 1014.3 |
| 20260507033501 | 8 | 75 | 4.8 | 9.7 | 0.00 | 0.56 | 0.00 | 89 | 1018.9 |
| 20260507033100 | 8 | 127 | 4.8 | 11.3 | 0.00 | 0.56 | 0.00 | 89 | 1014.4 |
| 20260507033001 | 8 | 91 | 4.8 | 11.3 | 0.00 | 0.56 | 0.00 | 89 | 1018.9 |
| 20260507032601 | 8 | 116 | 4.8 | 11.3 | 0.00 | 0.56 | 0.00 | 89 | 1014.4 |
| 20260507032502 | 8 | 92 | 4.8 | 11.3 | 0.00 | 0.56 | 0.00 | 90 | 1018.9 |
| 20260507032100 | 8 | 113 | 4.8 | 9.7 | 0.00 | 0.56 | 0.00 | 90 | 1014.4 |
| 20260507032002 | 8 | 93 | 4.8 | 9.7 | 0.00 | 0.56 | 0.00 | 90 | 1018.9 |
| 20260507031600 | 8 | 111 | 3.2 | 9.7 | 0.00 | 0.56 | 0.00 | 90 | 1014.5 |
| 20260507031500 | 8 | 95 | 4.8 | 9.7 | 0.00 | 0.56 | 0.00 | 90 | 1019.0 |
| 20260507031103 | 8 | 63 | 4.8 | 9.7 | 0.00 | 0.56 | 0.00 | 89 | 1014.4 |
| 20260507031001 | 8 | 87 | 4.8 | 9.7 | 0.00 | 0.56 | 0.00 | 89 | 1019.0 |
| 20260507030559 | 8 | 67 | 3.2 | 9.7 | 0.00 | 0.56 | 0.00 | 90 | 1014.5 |
| 20260507030501 | 8 | 78 | 4.8 | 9.7 | 0.00 | 0.56 | 0.00 | 90 | 1019.0 |
| 20260507030101 | 9 | 89 | 3.2 | 8.0 | 0.00 | 0.56 | 0.00 | 90 | 1014.4 |
| 20260507030006 | 9 | 84 | 4.8 | 8.0 | 0.00 | 0.56 | 0.00 | 90 | 1018.9 |
| 20260507030003 | 9 | 84 | 4.8 | 8.0 | 0.00 | 0.56 | 0.00 | 90 | 1014.4 |
| 20260507025604 | 9 | 72 | 4.8 | 11.3 | 0.00 | 0.56 | 0.00 | 90 | 1014.4 |
| 20260507025501 | 9 | 101 | 6.4 | 11.3 | 0.00 | 0.56 | 0.00 | 90 | 1018.9 |
| 20260507025101 | 8 | 87 | 4.8 | 11.3 | 0.00 | 0.56 | 0.00 | 90 | 1014.3 |
| 20260507025001 | 8 | 101 | 6.4 | 11.3 | 0.00 | 0.56 | 0.00 | 90 | 1018.8 |
| 20260507024630 | 8 | 99 | 4.8 | 14.5 | 0.00 | 0.56 | 0.00 | 90 | 1014.3 |
| 20260507024501 | 8 | 70 | 6.4 | 14.5 | 0.00 | 0.56 | 0.00 | 90 | 1018.9 |
| 20260507024059 | 8 | 70 | 6.4 | 14.5 | 0.00 | 0.56 | 0.00 | 90 | 1014.4 |
| 20260507023602 | 8 | 105 | 4.8 | 12.9 | 0.00 | 0.56 | 0.00 | 90 | 1014.4 |
| 20260507023501 | 9 | 98 | 6.4 | 12.9 | 0.00 | 0.56 | 0.00 | 90 | 1019.0 |
| 20260507023100 | 9 | 100 | 6.4 | 12.9 | 0.00 | 0.56 | 0.00 | 89 | 1014.5 |
| 20260507023001 | 9 | 58 | 6.4 | 12.9 | 0.00 | 0.56 | 0.00 | 89 | 1019.0 |
| 20260507022600 | 9 | 74 | 8.0 | 12.9 | 0.00 | 0.56 | 0.00 | 89 | 1014.5 |
| 20260507022502 | 9 | 89 | 4.8 | 12.9 | 0.00 | 0.56 | 0.00 | 89 | 1019.0 |
| 20260507022100 | 9 | 80 | 4.8 | 9.7 | 0.00 | 0.56 | 0.00 | 89 | 1014.5 |
| 20260507022001 | 9 | 90 | 4.8 | 9.7 | 0.00 | 0.56 | 0.00 | 89 | 1019.1 |
| 20260507021600 | 9 | 113 | 3.2 | 9.7 | 0.00 | 0.56 | 0.00 | 89 | 1014.5 |
| 20260507021501 | 9 | 93 | 6.4 | 9.7 | 0.00 | 0.56 | 0.00 | 89 | 1019.0 |
| 20260507021100 | 9 | 81 | 4.8 | 9.7 | 0.00 | 0.56 | 0.00 | 89 | 1014.5 |
| 20260507021001 | 9 | 74 | 4.8 | 9.7 | 0.00 | 0.56 | 0.00 | 89 | 1019.0 |
| 20260507020601 | 9 | 63 | 4.8 | 9.7 | 0.00 | 0.56 | 0.00 | 89 | 1014.6 |
| 20260507020502 | 9 | 77 | 4.8 | 9.7 | 0.00 | 0.56 | 0.00 | 89 | 1019.1 |
| 20260507020111 | 9 | 64 | 3.2 | 9.7 | 0.00 | 0.56 | 0.00 | 89 | 1014.6 |
| 20260507020004 | 9 | 98 | 4.8 | 9.7 | 0.00 | 0.56 | 0.00 | 89 | 1019.1 |
| 20260507015559 | 9 | 108 | 4.8 | 9.7 | 0.00 | 0.56 | 0.00 | 89 | 1014.6 |
| 20260507015500 | 9 | 83 | 6.4 | 9.7 | 0.00 | 0.56 | 0.00 | 89 | 1019.1 |
| 20260507015100 | 9 | 66 | 4.8 | 11.3 | 0.00 | 0.56 | 0.00 | 89 | 1014.6 |
| 20260507015002 | 9 | 89 | 6.4 | 11.3 | 0.00 | 0.56 | 0.00 | 89 | 1019.2 |
| 20260507014609 | 9 | 78 | 6.4 | 11.3 | 0.00 | 0.56 | 0.00 | 89 | 1014.6 |
| 20260507014500 | 9 | 65 | 6.4 | 11.3 | 0.00 | 0.56 | 0.00 | 89 | 1019.2 |
| 20260507014100 | 9 | 65 | 4.8 | 11.3 | 0.00 | 0.56 | 0.00 | 88 | 1014.8 |
| 20260507013559 | 9 | 87 | 3.2 | 9.7 | 0.00 | 0.56 | 0.00 | 89 | 1014.7 |
| 20260507013501 | 9 | 83 | 4.8 | 9.7 | 0.00 | 0.56 | 0.00 | 89 | 1019.2 |
| 20260507013100 | 9 | 110 | 4.8 | 9.7 | 0.00 | 0.56 | 0.00 | 89 | 1014.7 |
| 20260507013001 | 10 | 93 | 4.8 | 9.7 | 0.00 | 0.56 | 0.00 | 89 | 1019.2 |
| 20260507012600 | 10 | 80 | 4.8 | 9.7 | 0.00 | 0.56 | 0.00 | 89 | 1014.7 |
| 20260507012500 | 10 | 74 | 4.8 | 9.7 | 0.00 | 0.56 | 0.00 | 89 | 1019.2 |
| 20260507012100 | 10 | 111 | 3.2 | 8.0 | 0.00 | 0.56 | 0.00 | 89 | 1014.6 |
| 20260507012004 | 10 | 96 | 4.8 | 8.0 | 0.00 | 0.56 | 0.00 | 89 | 1019.2 |
| 20260507011603 | 10 | 98 | 1.6 | 9.7 | 0.00 | 0.56 | 0.00 | 89 | 1014.6 |
| 20260507011501 | 10 | 113 | 4.8 | 9.7 | 0.00 | 0.56 | 0.00 | 89 | 1019.2 |
| 20260507011059 | 10 | 67 | 3.2 | 11.3 | 0.00 | 0.56 | 0.00 | 89 | 1014.6 |
| 20260507011001 | 10 | 98 | 4.8 | 11.3 | 0.00 | 0.56 | 0.00 | 89 | 1019.2 |
| 20260507010559 | 10 | 70 | 4.8 | 11.3 | 0.00 | 0.56 | 0.00 | 89 | 1014.7 |
| 20260507010501 | 10 | 111 | 4.8 | 11.3 | 0.00 | 0.56 | 0.00 | 89 | 1019.2 |
| 20260507010100 | 10 | 104 | 3.2 | 11.3 | 0.00 | 0.56 | 0.00 | 89 | 1014.7 |
| 20260507010004 | 10 | 87 | 6.4 | 11.3 | 0.00 | 0.56 | 0.00 | 89 | 1019.2 |
| 20260507010002 | 10 | 87 | 4.8 | 11.3 | 0.00 | 0.56 | 0.00 | 89 | 1014.7 |
| 20260507005600 | 10 | 85 | 6.4 | 11.3 | 0.00 | 0.56 | 0.00 | 89 | 1014.7 |
| 20260507005500 | 10 | 93 | 6.4 | 9.7 | 0.00 | 0.56 | 0.00 | 89 | 1019.3 |
| 20260507005059 | 10 | 101 | 4.8 | 11.3 | 0.00 | 0.56 | 0.00 | 89 | 1014.8 |
| 20260507005001 | 10 | 94 | 6.4 | 11.3 | 0.00 | 0.56 | 0.00 | 89 | 1019.4 |
| 20260507004559 | 10 | 108 | 4.8 | 11.3 | 0.00 | 0.56 | 0.00 | 89 | 1014.9 |
| 20260507004502 | 10 | 102 | 6.4 | 11.3 | 0.00 | 0.56 | 0.00 | 89 | 1019.5 |
| 20260507004101 | 10 | 121 | 4.8 | 9.7 | 0.00 | 0.56 | 0.00 | 89 | 1014.9 |
| 20260507004001 | 10 | 73 | 4.8 | 9.7 | 0.00 | 0.56 | 0.00 | 89 | 1019.5 |
| 20260507003600 | 10 | 102 | 4.8 | 9.7 | 0.00 | 0.56 | 0.00 | 89 | 1014.9 |
| 20260507003502 | 10 | 82 | 4.8 | 9.7 | 0.00 | 0.56 | 0.00 | 89 | 1019.5 |
| 20260507003100 | 10 | 84 | 4.8 | 9.7 | 0.00 | 0.56 | 0.00 | 89 | 1015.0 |
| 20260507003001 | 10 | 110 | 4.8 | 9.7 | 0.00 | 0.56 | 0.00 | 89 | 1019.5 |
| 20260507002600 | 10 | 89 | 3.2 | 6.4 | 0.00 | 0.56 | 0.00 | 89 | 1015.0 |
| 20260507002501 | 10 | 65 | 4.8 | 6.4 | 0.00 | 0.56 | 0.00 | 89 | 1019.6 |
| 20260507002102 | 10 | 97 | 3.2 | 8.0 | 0.00 | 0.56 | 0.00 | 90 | 1015.0 |
| 20260507002001 | 10 | 77 | 4.8 | 9.7 | 0.00 | 0.56 | 0.00 | 90 | 1019.5 |
| 20260507001602 | 10 | 127 | 3.2 | 11.3 | 0.00 | 0.56 | 0.00 | 89 | 1015.0 |
| 20260507001501 | 10 | 78 | 4.8 | 11.3 | 0.00 | 0.56 | 0.00 | 89 | 1019.5 |
| 20260507001059 | 10 | 84 | 3.2 | 11.3 | 0.00 | 0.56 | 0.00 | 89 | 1015.0 |
| 20260507001001 | 10 | 124 | 4.8 | 11.3 | 0.00 | 0.56 | 0.00 | 89 | 1019.6 |
| 20260507000600 | 10 | 90 | 4.8 | 9.7 | 0.00 | 0.56 | 0.00 | 89 | 1015.1 |
| 20260507000500 | 10 | 84 | 4.8 | 9.7 | 0.00 | 0.56 | 0.00 | 89 | 1019.7 |
| 20260507000100 | 10 | 68 | 3.2 | 8.0 | 0.00 | 0.56 | 0.00 | 89 | 1015.1 |
| 20260507000005 | 10 | 96 | 3.2 | 8.0 | 0.00 | 0.56 | 0.00 | 89 | 1019.7 |
| 20260507000002 | 10 | 96 | 3.2 | 8.0 | 0.00 | 0.56 | 0.00 | 89 | 1015.1 |
| 20260506235600 | 10 | 91 | 3.2 | 8.0 | 0.00 | 0.56 | 0.00 | 89 | 1015.1 |
| 20260506235100 | 10 | 108 | 3.2 | 8.0 | 0.00 | 0.56 | 0.00 | 89 | 1015.1 |
| 20260506235001 | 10 | 120 | 3.2 | 8.0 | 0.00 | 0.56 | 0.00 | 89 | 1019.7 |
| 20260506234609 | 10 | 86 | 1.6 | 8.0 | 0.00 | 0.56 | 0.00 | 89 | 1015.1 |
| 20260506234500 | 10 | 106 | 3.2 | 8.0 | 0.00 | 0.56 | 0.00 | 89 | 1019.7 |
| 20260506234100 | 10 | 85 | 1.6 | 8.0 | 0.00 | 0.56 | 0.00 | 89 | 1015.2 |
| 20260506234002 | 10 | 68 | 4.8 | 8.0 | 0.00 | 0.56 | 0.00 | 89 | 1019.8 |
| 20260506233603 | 10 | 94 | 3.2 | 8.0 | 0.00 | 0.56 | 0.00 | 89 | 1015.3 |
| 20260506233500 | 10 | 76 | 3.2 | 8.0 | 0.00 | 0.56 | 0.00 | 89 | 1019.8 |
| 20260506233101 | 10 | 121 | 3.2 | 8.0 | 0.00 | 0.56 | 0.00 | 90 | 1015.3 |
| 20260506233002 | 10 | 57 | 3.2 | 8.0 | 0.00 | 0.56 | 0.00 | 90 | 1019.9 |
| 20260506232559 | 10 | 99 | 3.2 | 8.0 | 0.00 | 0.56 | 0.00 | 90 | 1015.3 |
| 20260506232501 | 10 | 93 | 4.8 | 8.0 | 0.00 | 0.56 | 0.00 | 90 | 1019.9 |
| 20260506232059 | 10 | 76 | 4.8 | 8.0 | 0.00 | 0.56 | 0.00 | 90 | 1015.4 |
| 20260506232001 | 10 | 96 | 4.8 | 8.0 | 0.00 | 0.56 | 0.00 | 90 | 1020.0 |
| 20260506231600 | 11 | 107 | 3.2 | 8.0 | 0.00 | 0.56 | 0.00 | 90 | 1015.4 |
| 20260506231504 | 11 | 116 | 4.8 | 9.7 | 0.00 | 0.56 | 0.00 | 90 | 1020.0 |
| 20260506231101 | 11 | 78 | 1.6 | 9.7 | 0.00 | 0.56 | 0.00 | 90 | 1015.4 |
| 20260506231002 | 11 | 108 | 4.8 | 9.7 | 0.00 | 0.56 | 0.00 | 90 | 1020.0 |
| 20260506231000 | 11 | 108 | 3.2 | 9.7 | 0.00 | 0.56 | 0.00 | 90 | 1015.4 |
| 20260506230600 | 11 | 80 | 4.8 | 8.0 | 0.00 | 0.56 | 0.00 | 89 | 1015.4 |
| 20260506230004 | 11 | 96 | 4.8 | 8.0 | 0.00 | 0.56 | 0.00 | 89 | 1020.0 |
| 20260506230002 | 11 | 96 | 3.2 | 8.0 | 0.00 | 0.56 | 0.00 | 89 | 1015.4 |
| 20260506225602 | 11 | 128 | 3.2 | 8.0 | 0.00 | 0.56 | 0.00 | 89 | 1015.4 |
| 20260506225102 | 11 | 68 | 1.6 | 8.0 | 0.00 | 0.56 | 0.00 | 89 | 1015.4 |
| 20260506225001 | 11 | 122 | 3.2 | 8.0 | 0.00 | 0.56 | 0.00 | 89 | 1020.0 |
| 20260506224559 | 11 | 110 | 3.2 | 6.4 | 0.00 | 0.56 | 0.00 | 89 | 1015.5 |
| 20260506224501 | 11 | 72 | 3.2 | 4.8 | 0.00 | 0.56 | 0.00 | 89 | 1020.0 |
| 20260506224100 | 11 | 70 | 1.6 | 4.8 | 0.00 | 0.56 | 0.00 | 89 | 1015.4 |
| 20260506223600 | 11 | 64 | 1.6 | 6.4 | 0.00 | 0.56 | 0.00 | 89 | 1015.4 |
| 20260506223502 | 11 | 75 | 3.2 | 8.0 | 0.00 | 0.56 | 0.00 | 89 | 1020.0 |
| 20260506223100 | 11 | 109 | 3.2 | 8.0 | 0.00 | 0.56 | 0.00 | 89 | 1015.5 |
| 20260506223001 | 11 | 99 | 4.8 | 8.0 | 0.00 | 0.56 | 0.00 | 89 | 1020.1 |
| 20260506222603 | 11 | 98 | 3.2 | 8.0 | 0.00 | 0.56 | 0.00 | 89 | 1015.5 |
| 20260506222500 | 11 | 90 | 4.8 | 8.0 | 0.00 | 0.56 | 0.00 | 89 | 1020.1 |
| 20260506222100 | 11 | 75 | 3.2 | 8.0 | 0.00 | 0.56 | 0.00 | 89 | 1015.5 |
| 20260506222001 | 11 | 76 | 3.2 | 8.0 | 0.00 | 0.56 | 0.00 | 89 | 1020.1 |
| 20260506221600 | 11 | 100 | 1.6 | 8.0 | 0.00 | 0.56 | 0.00 | 89 | 1015.5 |
| 20260506221502 | 11 | 126 | 3.2 | 8.0 | 0.00 | 0.56 | 0.00 | 89 | 1020.1 |
| 20260506221059 | 11 | 76 | 1.6 | 8.0 | 0.00 | 0.56 | 0.00 | 89 | 1015.5 |
| 20260506221002 | 11 | 86 | 4.8 | 8.0 | 0.00 | 0.56 | 0.00 | 89 | 1020.1 |
| 20260506220600 | 11 | 90 | 3.2 | 8.0 | 0.00 | 0.56 | 0.00 | 88 | 1015.5 |
| 20260506220501 | 11 | 78 | 4.8 | 8.0 | 0.00 | 0.56 | 0.00 | 88 | 1020.1 |
| 20260506220100 | 11 | 82 | 3.2 | 8.0 | 0.00 | 0.56 | 0.00 | 88 | 1015.5 |
| 20260506220005 | 11 | 77 | 3.2 | 8.0 | 0.00 | 0.56 | 0.00 | 88 | 1020.1 |
| 20260506215559 | 11 | 82 | 3.2 | 6.4 | 0.00 | 0.56 | 0.56 | 89 | 1015.6 |
| 20260506215500 | 11 | 118 | 3.2 | 6.4 | 0.00 | 0.56 | 0.56 | 89 | 1020.1 |
| 20260506215059 | 11 | 82 | 1.6 | 6.4 | 0.00 | 0.56 | 0.56 | 88 | 1015.5 |
| 20260506215002 | 11 | 112 | 3.2 | 6.4 | 0.00 | 0.56 | 0.56 | 88 | 1020.1 |
| 20260506214600 | 11 | 89 | 1.6 | 6.4 | 0.00 | 0.56 | 0.56 | 88 | 1015.5 |
| 20260506214500 | 11 | 91 | 3.2 | 6.4 | 0.00 | 0.56 | 0.56 | 88 | 1020.1 |
| 20260506214100 | 11 | 88 | 3.2 | 6.4 | 0.00 | 0.56 | 0.56 | 88 | 1015.6 |
| 20260506214003 | 11 | 75 | 3.2 | 6.4 | 0.00 | 0.56 | 0.56 | 88 | 1020.2 |
| 20260506213602 | 12 | 57 | 3.2 | 6.4 | 0.00 | 0.56 | 0.56 | 88 | 1015.6 |
| 20260506213502 | 12 | 85 | 3.2 | 6.4 | 0.00 | 0.56 | 0.56 | 88 | 1020.2 |
| 20260506213139 | 12 | 89 | 3.2 | 8.0 | 0.00 | 0.56 | 0.56 | 88 | 1015.6 |
| 20260506213001 | 12 | 127 | 4.8 | 8.0 | 0.00 | 0.56 | 0.56 | 88 | 1020.2 |
| 20260506212601 | 12 | 133 | 4.8 | 8.0 | 0.00 | 0.56 | 0.56 | 87 | 1015.5 |
| 20260506212500 | 12 | 131 | 3.2 | 8.0 | 0.00 | 0.56 | 0.56 | 87 | 1020.1 |
| 20260506212100 | 12 | 113 | 1.6 | 6.4 | 0.00 | 0.56 | 0.56 | 87 | 1015.6 |
| 20260506212005 | 12 | 100 | 3.2 | 6.4 | 0.00 | 0.56 | 0.56 | 87 | 1020.1 |
| 20260506211627 | 12 | 94 | 1.6 | 6.4 | 0.00 | 0.56 | 0.56 | 87 | 1015.5 |
| 20260506211100 | 12 | 105 | 1.6 | 6.4 | 0.00 | 0.56 | 0.56 | 87 | 1015.5 |
| 20260506211001 | 12 | 103 | 3.2 | 9.7 | 0.00 | 0.56 | 0.56 | 87 | 1020.0 |
| 20260506210600 | 12 | 115 | 3.2 | 9.7 | 0.00 | 0.56 | 0.56 | 87 | 1015.5 |
| 20260506210511 | 12 | 92 | 3.2 | 9.7 | 0.00 | 0.56 | 0.56 | 87 | 1015.5 |
| 20260506210103 | 12 | 85 | 4.8 | 9.7 | 0.00 | 0.56 | 0.56 | 86 | 1015.5 |
| 20260506210006 | 12 | 94 | 3.2 | 9.7 | 0.00 | 0.56 | 0.56 | 86 | 1020.0 |
| 20260506210002 | 12 | 94 | 4.8 | 9.7 | 0.00 | 0.56 | 0.56 | 86 | 1015.5 |
| 20260506205559 | 12 | 129 | 1.6 | 4.8 | 0.00 | 0.56 | 0.56 | 86 | 1015.5 |
| 20260506205500 | 12 | 79 | 1.6 | 3.2 | 0.00 | 0.56 | 0.56 | 86 | 1020.1 |
| 20260506205059 | 12 | 108 | 0.0 | 4.8 | 0.00 | 0.56 | 0.56 | 86 | 1015.4 |
| 20260506205001 | 12 | 65 | 1.6 | 4.8 | 0.00 | 0.56 | 0.56 | 87 | 1020.0 |
| 20260506204601 | 12 | 72 | 1.6 | 4.8 | 0.00 | 0.56 | 0.56 | 86 | 1015.4 |
| 20260506204501 | 12 | 88 | 3.2 | 4.8 | 0.00 | 0.56 | 0.56 | 86 | 1020.0 |
| 20260506204059 | 12 | 85 | 1.6 | 4.8 | 0.00 | 0.56 | 0.56 | 86 | 1015.5 |
| 20260506204002 | 12 | 98 | 3.2 | 4.8 | 0.00 | 0.56 | 0.56 | 86 | 1020.0 |
| 20260506203559 | 12 | 74 | 3.2 | 4.8 | 0.00 | 0.56 | 0.56 | 85 | 1015.6 |
| 20260506203501 | 12 | 78 | 1.6 | 4.8 | 0.00 | 0.56 | 0.56 | 85 | 1020.1 |
| 20260506203103 | 12 | 87 | 1.6 | 4.8 | 0.00 | 0.56 | 0.56 | 85 | 1015.5 |
| 20260506203002 | 12 | 80 | 1.6 | 3.2 | 0.00 | 0.56 | 0.56 | 85 | 1020.1 |
| 20260506202604 | 12 | 89 | 1.6 | 3.2 | 0.00 | 0.56 | 0.56 | 85 | 1015.4 |
| 20260506202500 | 12 | 84 | 1.6 | 3.2 | 0.00 | 0.56 | 0.56 | 85 | 1020.0 |
| 20260506202104 | 12 | 77 | 0.0 | 3.2 | 0.00 | 0.56 | 0.56 | 84 | 1015.4 |
| 20260506202001 | 12 | 72 | 1.6 | 3.2 | 0.00 | 0.56 | 0.56 | 84 | 1020.0 |
| 20260506201610 | 12 | 80 | 1.6 | 3.2 | 0.00 | 0.56 | 0.56 | 83 | 1015.4 |
| 20260506201500 | 12 | 78 | 1.6 | 3.2 | 0.00 | 0.56 | 0.56 | 83 | 1020.0 |
| 20260506201101 | 12 | 88 | 0.0 | 1.6 | 0.00 | 0.56 | 0.56 | 83 | 1015.4 |
| 20260506200559 | 12 | 74 | 0.0 | 3.2 | 0.00 | 0.56 | 0.56 | 83 | 1015.4 |
| 20260506200500 | 12 | 75 | 1.6 | 3.2 | 0.00 | 0.56 | 0.56 | 83 | 1019.9 |
| 20260506200005 | 13 | 69 | 0.0 | 3.2 | 0.00 | 0.56 | 0.56 | 82 | 1015.3 |
| 20260506200003 | 13 | 69 | 1.6 | 3.2 | 0.00 | 0.56 | 0.56 | 82 | 1019.9 |
| 20260506195559 | 13 | 91 | 0.0 | 3.2 | 0.00 | 0.58 | 0.56 | 82 | 1015.3 |
| 20260506195500 | 13 | 103 | 1.6 | 3.2 | 0.00 | 0.58 | 0.56 | 82 | 1019.8 |
| 20260506195103 | 13 | 75 | 0.0 | 3.2 | 0.00 | 0.58 | 0.56 | 82 | 1015.2 |
| 20260506194619 | 13 | 75 | 1.6 | 3.2 | 0.00 | 0.58 | 0.56 | 81 | 1015.1 |
| 20260506194504 | 13 | 72 | 1.6 | 3.2 | 0.00 | 0.58 | 0.56 | 81 | 1019.7 |
| 20260506194059 | 13 | 70 | 0.0 | 3.2 | 0.00 | 0.58 | 0.56 | 80 | 1015.0 |
| 20260506194001 | 13 | 79 | 1.6 | 3.2 | 0.00 | 0.58 | 0.56 | 80 | 1019.6 |
| 20260506193559 | 13 | 63 | 0.0 | 3.2 | 0.00 | 0.58 | 0.56 | 79 | 1015.0 |
| 20260506193501 | 13 | 81 | 0.0 | 1.6 | 0.00 | 0.58 | 0.56 | 79 | 1019.6 |
| 20260506193101 | 13 | 333 | 0.0 | 1.6 | 0.00 | 0.58 | 0.56 | 79 | 1015.0 |
| 20260506192559 | 14 | 333 | 0.0 | 1.6 | 0.00 | 0.58 | 0.56 | 78 | 1015.0 |
| 20260506192100 | 14 | 333 | 0.0 | 1.6 | 0.00 | 0.58 | 0.56 | 78 | 1014.9 |
| 20260506192001 | 14 | 334 | 0.0 | 3.2 | 0.00 | 0.58 | 0.56 | 78 | 1019.5 |
| 20260506191607 | 14 | 333 | 0.0 | 3.2 | 0.00 | 0.58 | 0.56 | 77 | 1014.9 |
| 20260506191500 | 14 | 332 | 0.0 | 3.2 | 0.00 | 0.58 | 0.56 | 77 | 1019.5 |
| 20260506191100 | 14 | 334 | 0.0 | 3.2 | 0.00 | 0.58 | 0.56 | 76 | 1014.9 |
| 20260506191006 | 14 | 319 | 1.6 | 3.2 | 0.00 | 0.58 | 0.56 | 76 | 1019.4 |
| 20260506190600 | 15 | 359 | 0.0 | 3.2 | 0.00 | 0.58 | 0.56 | 75 | 1014.9 |
| 20260506190500 | 15 | 6 | 1.6 | 3.2 | 0.00 | 0.58 | 0.56 | 75 | 1019.4 |
| 20260506190100 | 15 | 339 | 0.0 | 3.2 | 0.00 | 0.58 | 0.56 | 74 | 1014.8 |
| 20260506190005 | 15 | 295 | 0.0 | 3.2 | 0.00 | 0.58 | 0.56 | 74 | 1019.4 |
| 20260506190002 | 15 | 295 | 0.0 | 3.2 | 0.00 | 0.58 | 0.56 | 74 | 1014.8 |
| 20260506185559 | 15 | 349 | 0.0 | 1.6 | 0.00 | 0.71 | 0.56 | 74 | 1014.8 |
| 20260506185501 | 15 | 349 | 0.0 | 1.6 | 0.00 | 0.71 | 0.56 | 74 | 1019.4 |
| 20260506185101 | 15 | 322 | 0.0 | 1.6 | 0.00 | 0.71 | 0.56 | 75 | 1014.8 |
| 20260506185002 | 15 | 322 | 0.0 | 1.6 | 0.00 | 0.71 | 0.56 | 75 | 1019.4 |
| 20260506184608 | 15 | 329 | 0.0 | 1.6 | 0.00 | 0.71 | 0.56 | 74 | 1014.8 |
| 20260506184500 | 15 | 334 | 1.6 | 3.2 | 0.00 | 0.71 | 0.56 | 74 | 1019.3 |
| 20260506184101 | 15 | 276 | 0.0 | 3.2 | 0.00 | 0.71 | 0.56 | 74 | 1014.8 |
| 20260506183600 | 15 | 338 | 0.0 | 4.8 | 0.00 | 0.71 | 0.56 | 74 | 1014.8 |
| 20260506183501 | 15 | 337 | 1.6 | 4.8 | 0.00 | 0.71 | 0.56 | 75 | 1019.4 |
| 20260506183105 | 15 | 319 | 1.6 | 4.8 | 0.00 | 0.71 | 0.56 | 75 | 1014.8 |
| 20260506183001 | 15 | 314 | 1.6 | 4.8 | 0.00 | 0.71 | 0.56 | 75 | 1019.4 |
| 20260506182559 | 15 | 335 | 1.6 | 4.8 | 0.00 | 0.71 | 0.56 | 75 | 1014.7 |
| 20260506182501 | 15 | 271 | 1.6 | 4.8 | 0.00 | 0.71 | 0.56 | 75 | 1019.3 |
| 20260506182100 | 15 | 338 | 0.0 | 4.8 | 0.00 | 0.71 | 0.56 | 75 | 1014.8 |
| 20260506182002 | 15 | 335 | 1.6 | 4.8 | 0.00 | 0.71 | 0.56 | 75 | 1019.3 |
| 20260506181600 | 15 | 322 | 1.6 | 4.8 | 0.00 | 0.71 | 0.56 | 75 | 1014.7 |
| 20260506181501 | 15 | 316 | 3.2 | 4.8 | 0.00 | 0.71 | 0.56 | 75 | 1019.2 |
| 20260506181100 | 15 | 347 | 1.6 | 6.4 | 0.00 | 0.71 | 0.56 | 76 | 1014.7 |
| 20260506181001 | 15 | 311 | 3.2 | 6.4 | 0.00 | 0.71 | 0.56 | 76 | 1019.3 |
| 20260506180600 | 15 | 327 | 3.2 | 6.4 | 0.00 | 0.71 | 0.56 | 76 | 1014.7 |
| 20260506180502 | 15 | 359 | 3.2 | 6.4 | 0.00 | 0.71 | 0.56 | 75 | 1019.2 |
| 20260506180059 | 15 | 291 | 3.2 | 6.4 | 0.00 | 0.71 | 0.56 | 75 | 1014.7 |
| 20260506180006 | 15 | 322 | 3.2 | 6.4 | 0.00 | 0.71 | 0.56 | 75 | 1014.7 |
| 20260506175559 | 16 | 327 | 1.6 | 4.8 | 0.00 | 0.71 | 0.56 | 75 | 1014.8 |
| 20260506175502 | 16 | 26 | 1.6 | 4.8 | 0.00 | 0.71 | 0.56 | 75 | 1019.3 |
| 20260506175059 | 15 | 328 | 1.6 | 8.0 | 0.00 | 0.71 | 0.56 | 76 | 1014.8 |
| 20260506175002 | 15 | 262 | 3.2 | 8.0 | 0.00 | 0.71 | 0.56 | 76 | 1019.3 |
| 20260506174600 | 15 | 336 | 3.2 | 8.0 | 0.00 | 0.71 | 0.56 | 75 | 1014.7 |
| 20260506174100 | 15 | 266 | 3.2 | 8.0 | 0.00 | 0.71 | 0.56 | 75 | 1014.7 |
| 20260506173600 | 15 | 306 | 1.6 | 8.0 | 0.00 | 0.71 | 0.56 | 76 | 1014.7 |
| 20260506173501 | 15 | 356 | 3.2 | 8.0 | 0.00 | 0.71 | 0.56 | 76 | 1019.2 |
| 20260506173109 | 15 | 336 | 1.6 | 6.4 | 0.00 | 0.71 | 0.56 | 75 | 1014.8 |
| 20260506173001 | 15 | 293 | 3.2 | 6.4 | 0.00 | 0.71 | 0.56 | 75 | 1019.3 |
| 20260506172603 | 15 | 316 | 3.2 | 6.4 | 0.00 | 0.71 | 0.56 | 76 | 1014.7 |
| 20260506172501 | 15 | 274 | 3.2 | 6.4 | 0.00 | 0.71 | 0.56 | 76 | 1019.2 |
| 20260506172101 | 15 | 307 | 3.2 | 6.4 | 0.00 | 0.71 | 0.56 | 75 | 1014.7 |
| 20260506172003 | 15 | 253 | 3.2 | 9.7 | 0.00 | 0.71 | 0.56 | 75 | 1019.2 |
| 20260506171600 | 15 | 293 | 1.6 | 9.7 | 0.00 | 0.71 | 0.56 | 76 | 1014.8 |
| 20260506171105 | 15 | 302 | 3.2 | 9.7 | 0.00 | 0.71 | 0.56 | 77 | 1014.8 |
| 20260506171001 | 15 | 290 | 3.2 | 9.7 | 0.00 | 0.71 | 0.56 | 77 | 1019.4 |
| 20260506170600 | 15 | 274 | 3.2 | 9.7 | 0.00 | 0.71 | 0.56 | 77 | 1014.8 |
| 20260506170501 | 15 | 271 | 4.8 | 9.7 | 0.00 | 0.71 | 0.56 | 77 | 1019.3 |
| 20260506170115 | 15 | 267 | 4.8 | 8.0 | 0.00 | 0.71 | 0.56 | 77 | 1014.8 |
| 20260506170013 | 15 | 232 | 4.8 | 8.0 | 0.00 | 0.71 | 0.56 | 76 | 1019.4 |
| 20260506170002 | 15 | 265 | 4.8 | 8.0 | 0.00 | 0.71 | 0.56 | 76 | 1014.8 |
| 20260506165600 | 15 | 260 | 3.2 | 9.7 | 0.00 | 0.71 | 0.56 | 76 | 1014.8 |
| 20260506165500 | 15 | 282 | 3.2 | 9.7 | 0.00 | 0.71 | 0.56 | 76 | 1019.4 |
| 20260506165100 | 15 | 324 | 3.2 | 9.7 | 0.00 | 0.71 | 0.56 | 77 | 1014.8 |
| 20260506165005 | 15 | 275 | 4.8 | 9.7 | 0.00 | 0.71 | 0.56 | 77 | 1019.4 |
| 20260506164602 | 15 | 288 | 3.2 | 9.7 | 0.00 | 0.71 | 0.56 | 77 | 1014.9 |
| 20260506164500 | 14 | 279 | 4.8 | 9.7 | 0.00 | 0.71 | 0.56 | 77 | 1019.4 |
| 20260506164100 | 15 | 296 | 4.8 | 8.0 | 0.00 | 0.71 | 0.56 | 77 | 1014.8 |
| 20260506164000 | 15 | 269 | 4.8 | 8.0 | 0.00 | 0.71 | 0.56 | 77 | 1019.4 |
| 20260506163603 | 15 | 273 | 3.2 | 8.0 | 0.00 | 0.71 | 0.56 | 77 | 1014.9 |
| 20260506163502 | 15 | 314 | 4.8 | 8.0 | 0.00 | 0.71 | 0.56 | 77 | 1019.4 |
| 20260506163112 | 15 | 294 | 3.2 | 8.0 | 0.00 | 0.71 | 0.56 | 77 | 1014.9 |
| 20260506163001 | 15 | 272 | 4.8 | 8.0 | 0.00 | 0.71 | 0.56 | 77 | 1019.4 |
| 20260506162602 | 15 | 245 | 3.2 | 12.9 | 0.00 | 0.71 | 0.56 | 78 | 1014.9 |
| 20260506162100 | 15 | 291 | 6.4 | 12.9 | 0.00 | 0.71 | 0.56 | 77 | 1014.9 |
| 20260506162002 | 15 | 297 | 6.4 | 12.9 | 0.00 | 0.71 | 0.56 | 77 | 1019.4 |
| 20260506161601 | 15 | 270 | 4.8 | 12.9 | 0.00 | 0.71 | 0.56 | 75 | 1014.8 |
| 20260506161501 | 15 | 282 | 4.8 | 9.7 | 0.00 | 0.71 | 0.56 | 75 | 1019.4 |
| 20260506161059 | 15 | 295 | 3.2 | 11.3 | 0.00 | 0.71 | 0.56 | 76 | 1014.8 |
| 20260506160601 | 15 | 300 | 6.4 | 11.3 | 0.00 | 0.71 | 0.56 | 75 | 1014.8 |
| 20260506160501 | 15 | 314 | 6.4 | 9.7 | 0.00 | 0.71 | 0.56 | 75 | 1019.4 |
| 20260506160111 | 15 | 281 | 4.8 | 12.9 | 0.00 | 0.71 | 0.56 | 74 | 1014.8 |
| 20260506160006 | 15 | 272 | 6.4 | 12.9 | 0.00 | 0.71 | 0.56 | 74 | 1019.3 |
| 20260506160004 | 15 | 272 | 4.8 | 12.9 | 0.00 | 0.71 | 0.56 | 74 | 1014.8 |
| 20260506155559 | 15 | 274 | 4.8 | 12.9 | 0.00 | 0.79 | 0.56 | 74 | 1014.9 |
| 20260506155500 | 15 | 288 | 6.4 | 12.9 | 0.00 | 0.79 | 0.56 | 74 | 1019.4 |
| 20260506155100 | 15 | 286 | 3.2 | 11.3 | 0.00 | 0.79 | 0.56 | 76 | 1014.9 |
| 20260506155002 | 15 | 286 | 6.4 | 11.3 | 0.00 | 0.79 | 0.56 | 75 | 1019.5 |
| 20260506154605 | 15 | 290 | 6.4 | 14.5 | 0.00 | 0.79 | 0.56 | 74 | 1015.0 |
| 20260506154500 | 15 | 276 | 8.0 | 14.5 | 0.00 | 0.79 | 0.56 | 75 | 1019.5 |
| 20260506154100 | 15 | 262 | 6.4 | 14.5 | 0.00 | 0.79 | 0.56 | 75 | 1015.0 |
| 20260506154001 | 15 | 287 | 8.0 | 14.5 | 0.00 | 0.79 | 0.56 | 75 | 1019.5 |
| 20260506153600 | 15 | 262 | 6.4 | 14.5 | 0.00 | 0.79 | 0.56 | 75 | 1015.0 |
| 20260506153504 | 15 | 310 | 8.0 | 14.5 | 0.00 | 0.79 | 0.56 | 74 | 1019.6 |
| 20260506153104 | 15 | 282 | 4.8 | 14.5 | 0.00 | 0.79 | 0.56 | 75 | 1015.0 |
| 20260506153002 | 15 | 311 | 6.4 | 12.9 | 0.00 | 0.79 | 0.56 | 75 | 1019.6 |
| 20260506152559 | 15 | 295 | 3.2 | 12.9 | 0.00 | 0.79 | 0.56 | 76 | 1015.0 |
| 20260506152101 | 15 | 318 | 6.4 | 11.3 | 0.00 | 0.79 | 0.56 | 77 | 1015.1 |
| 20260506152001 | 15 | 288 | 4.8 | 11.3 | 0.00 | 0.79 | 0.56 | 76 | 1019.7 |
| 20260506151605 | 15 | 333 | 4.8 | 12.9 | 0.00 | 0.79 | 0.56 | 77 | 1015.1 |
| 20260506151502 | 15 | 297 | 6.4 | 12.9 | 0.00 | 0.79 | 0.56 | 77 | 1019.6 |
| 20260506151103 | 14 | 285 | 4.8 | 12.9 | 0.00 | 0.79 | 0.56 | 77 | 1015.1 |
| 20260506151004 | 14 | 261 | 6.4 | 12.9 | 0.00 | 0.79 | 0.56 | 76 | 1019.7 |
| 20260506150601 | 14 | 304 | 4.8 | 11.3 | 0.00 | 0.79 | 0.56 | 77 | 1015.1 |
| 20260506150500 | 14 | 307 | 6.4 | 11.3 | 0.00 | 0.79 | 0.56 | 77 | 1019.7 |
| 20260506150101 | 15 | 285 | 6.4 | 11.3 | 0.00 | 0.79 | 0.56 | 77 | 1015.1 |
| 20260506150005 | 15 | 297 | 6.4 | 11.3 | 0.00 | 0.79 | 0.56 | 77 | 1019.7 |
| 20260506145601 | 15 | 278 | 6.4 | 11.3 | 0.00 | 1.07 | 0.56 | 77 | 1015.1 |
| 20260506145103 | 15 | 284 | 3.2 | 11.3 | 0.00 | 1.07 | 0.56 | 77 | 1015.2 |
| 20260506145001 | 15 | 290 | 4.8 | 11.3 | 0.00 | 1.07 | 0.56 | 77 | 1019.7 |
| 20260506144608 | 15 | 284 | 3.2 | 11.3 | 0.00 | 1.07 | 0.56 | 78 | 1015.2 |
| 20260506144501 | 15 | 304 | 6.4 | 12.9 | 0.00 | 1.07 | 0.56 | 78 | 1019.7 |
| 20260506144100 | 15 | 296 | 3.2 | 12.9 | 0.00 | 1.07 | 0.56 | 78 | 1015.2 |
| 20260506144001 | 15 | 280 | 6.4 | 12.9 | 0.00 | 1.07 | 0.56 | 78 | 1019.8 |
| 20260506143600 | 15 | 239 | 4.8 | 14.5 | 0.00 | 1.07 | 0.56 | 77 | 1015.2 |
| 20260506143109 | 15 | 267 | 6.4 | 14.5 | 0.00 | 1.07 | 0.56 | 77 | 1015.3 |
| 20260506142600 | 15 | 276 | 4.8 | 12.9 | 0.00 | 1.07 | 0.56 | 77 | 1015.4 |
| 20260506142503 | 15 | 266 | 4.8 | 12.9 | 0.00 | 1.07 | 0.56 | 78 | 1019.9 |
| 20260506142102 | 14 | 281 | 4.8 | 12.9 | 0.00 | 1.07 | 0.56 | 77 | 1015.4 |
| 20260506142001 | 14 | 293 | 4.8 | 12.9 | 0.00 | 1.07 | 0.56 | 77 | 1019.9 |
| 20260506141559 | 14 | 266 | 3.2 | 11.3 | 0.00 | 1.07 | 0.56 | 77 | 1015.4 |
| 20260506141500 | 14 | 307 | 4.8 | 11.3 | 0.00 | 1.07 | 0.56 | 77 | 1019.9 |
| 20260506141101 | 14 | 285 | 3.2 | 11.3 | 0.00 | 1.07 | 0.56 | 76 | 1015.4 |
| 20260506141002 | 14 | 254 | 4.8 | 11.3 | 0.00 | 1.07 | 0.56 | 76 | 1020.0 |
| 20260506140601 | 14 | 303 | 3.2 | 9.7 | 0.00 | 1.07 | 0.56 | 78 | 1015.4 |
| 20260506140106 | 13 | 202 | 3.2 | 9.7 | 0.00 | 1.07 | 0.56 | 79 | 1015.5 |
| 20260506140005 | 13 | 293 | 4.8 | 9.7 | 0.00 | 1.07 | 0.56 | 78 | 1020.1 |
| 20260506140002 | 13 | 293 | 4.8 | 9.7 | 0.00 | 1.07 | 0.56 | 78 | 1015.5 |
| 20260506135559 | 14 | 261 | 3.2 | 11.3 | 0.00 | 1.24 | 0.56 | 79 | 1015.5 |
| 20260506135501 | 14 | 259 | 4.8 | 11.3 | 0.00 | 1.24 | 0.56 | 80 | 1020.0 |
| 20260506135101 | 13 | 232 | 3.2 | 12.9 | 0.00 | 1.24 | 0.56 | 79 | 1015.5 |
| 20260506135002 | 13 | 276 | 4.8 | 12.9 | 0.00 | 1.24 | 0.56 | 78 | 1020.1 |
| 20260506134600 | 13 | 216 | 4.8 | 14.5 | 0.00 | 1.24 | 0.56 | 77 | 1015.5 |
| 20260506134501 | 13 | 236 | 6.4 | 14.5 | 0.00 | 1.24 | 0.56 | 77 | 1020.0 |
| 20260506134100 | 13 | 226 | 6.4 | 14.5 | 0.00 | 1.24 | 0.56 | 79 | 1015.4 |
| 20260506134001 | 13 | 159 | 6.4 | 14.5 | 0.00 | 1.24 | 0.56 | 78 | 1020.0 |
| 20260506133600 | 13 | 238 | 6.4 | 11.3 | 0.00 | 1.24 | 0.56 | 80 | 1015.4 |
| 20260506133500 | 13 | 297 | 4.8 | 11.3 | 0.00 | 1.24 | 0.56 | 80 | 1020.0 |
| 20260506133103 | 13 | 303 | 3.2 | 11.3 | 0.00 | 1.24 | 0.56 | 81 | 1015.4 |
| 20260506133002 | 13 | 280 | 4.8 | 11.3 | 0.00 | 1.24 | 0.56 | 81 | 1020.0 |
| 20260506132600 | 13 | 257 | 6.4 | 11.3 | 0.00 | 1.24 | 0.56 | 81 | 1015.4 |
| 20260506132502 | 13 | 269 | 4.8 | 11.3 | 0.00 | 1.24 | 0.56 | 81 | 1020.0 |
| 20260506132100 | 13 | 227 | 4.8 | 14.5 | 0.00 | 1.24 | 0.56 | 81 | 1015.4 |
| 20260506132001 | 13 | 257 | 4.8 | 14.5 | 0.00 | 1.24 | 0.56 | 81 | 1019.9 |
| 20260506131603 | 13 | 260 | 3.2 | 14.5 | 0.00 | 1.24 | 0.56 | 82 | 1015.4 |
| 20260506131501 | 13 | 257 | 6.4 | 14.5 | 0.00 | 1.24 | 0.56 | 82 | 1019.9 |
| 20260506131104 | 13 | 217 | 4.8 | 14.5 | 0.00 | 1.24 | 0.56 | 83 | 1015.4 |
| 20260506131000 | 13 | 269 | 6.4 | 14.5 | 0.00 | 1.24 | 0.56 | 84 | 1019.9 |
| 20260506130601 | 13 | 290 | 4.8 | 14.5 | 0.00 | 1.24 | 0.56 | 83 | 1015.3 |
| 20260506130502 | 13 | 241 | 6.4 | 14.5 | 0.00 | 1.24 | 0.56 | 83 | 1019.9 |
| 20260506130007 | 13 | 267 | 6.4 | 17.7 | 0.00 | 1.24 | 0.56 | 83 | 1015.3 |
| 20260506130005 | 13 | 267 | 8.0 | 17.7 | 0.00 | 1.24 | 0.56 | 83 | 1019.9 |
| 20260506125559 | 13 | 266 | 8.0 | 17.7 | 0.00 | 1.42 | 0.56 | 83 | 1015.2 |
| 20260506125500 | 13 | 237 | 9.7 | 17.7 | 0.00 | 1.45 | 0.56 | 83 | 1019.8 |
| 20260506125100 | 13 | 245 | 6.4 | 17.7 | 0.00 | 1.42 | 0.56 | 82 | 1015.3 |
| 20260506124559 | 13 | 295 | 8.0 | 17.7 | 0.00 | 1.42 | 0.56 | 83 | 1015.2 |
| 20260506124502 | 13 | 195 | 8.0 | 17.7 | 0.00 | 1.45 | 0.56 | 84 | 1019.7 |
| 20260506124100 | 13 | 261 | 8.0 | 25.7 | 0.00 | 1.42 | 0.56 | 84 | 1015.1 |
| 20260506124001 | 13 | 252 | 11.3 | 25.7 | 0.00 | 1.45 | 0.56 | 84 | 1019.7 |
| 20260506123601 | 13 | 240 | 11.3 | 25.7 | 0.00 | 1.42 | 0.56 | 84 | 1015.3 |
| 20260506123501 | 13 | 269 | 12.9 | 25.7 | 0.00 | 1.45 | 0.56 | 84 | 1019.7 |
| 20260506123100 | 13 | 259 | 9.7 | 20.9 | 0.00 | 1.42 | 0.56 | 84 | 1015.2 |
| 20260506122601 | 13 | 241 | 8.0 | 20.9 | 0.00 | 1.42 | 0.56 | 84 | 1015.1 |
| 20260506122501 | 13 | 227 | 9.7 | 20.9 | 0.00 | 1.45 | 0.56 | 83 | 1019.8 |
| 20260506122100 | 13 | 282 | 9.7 | 17.7 | 0.00 | 1.42 | 0.56 | 83 | 1015.2 |
| 20260506122001 | 13 | 183 | 8.0 | 16.1 | 0.00 | 1.45 | 0.56 | 83 | 1019.8 |
| 20260506121600 | 13 | 247 | 8.0 | 17.7 | 0.00 | 1.42 | 0.56 | 82 | 1015.2 |
| 20260506121500 | 13 | 301 | 9.7 | 19.3 | 0.03 | 1.45 | 0.56 | 81 | 1019.7 |
| 20260506121100 | 13 | 271 | 8.0 | 19.3 | 0.05 | 1.42 | 0.56 | 81 | 1015.2 |
| 20260506121005 | 13 | 248 | 9.7 | 19.3 | 0.05 | 1.45 | 0.56 | 81 | 1019.7 |
| 20260506120600 | 13 | 253 | 8.0 | 19.3 | 0.05 | 1.42 | 0.56 | 81 | 1015.1 |
| 20260506120501 | 13 | 235 | 9.7 | 19.3 | 0.05 | 1.45 | 0.56 | 81 | 1019.7 |
| 20260506120100 | 13 | 223 | 8.0 | 22.5 | 0.05 | 1.42 | 0.56 | 82 | 1015.1 |
| 20260506120005 | 13 | 270 | 9.7 | 22.5 | 0.05 | 1.45 | 0.56 | 81 | 1019.7 |
| 20260506115502 | 14 | 243 | 8.0 | 20.9 | 0.05 | 1.42 | 0.56 | 81 | 1015.1 |
| 20260506115004 | 13 | 264 | 8.0 | 16.1 | 0.05 | 1.45 | 0.56 | 80 | 1019.6 |
| 20260506115000 | 13 | 264 | 6.4 | 16.1 | 0.05 | 1.42 | 0.56 | 80 | 1015.0 |
| 20260506114503 | 13 | 302 | 8.0 | 19.3 | 0.05 | 1.45 | 0.56 | 81 | 1019.6 |
| 20260506114003 | 13 | 234 | 8.0 | 19.3 | 0.05 | 1.42 | 0.56 | 81 | 1015.0 |
| 20260506113502 | 13 | 283 | 6.4 | 20.9 | 0.05 | 1.42 | 0.56 | 83 | 1015.0 |
| 20260506113002 | 13 | 293 | 11.3 | 20.9 | 0.05 | 1.45 | 0.56 | 83 | 1019.6 |
| 20260506112506 | 13 | 264 | 9.7 | 19.3 | 0.05 | 1.45 | 0.56 | 85 | 1019.6 |
| 20260506112504 | 13 | 269 | 8.0 | 19.3 | 0.05 | 1.42 | 0.56 | 85 | 1015.0 |
| 20260506112001 | 13 | 276 | 9.7 | 29.0 | 0.05 | 1.42 | 0.56 | 85 | 1015.0 |
| 20260506111501 | 13 | 268 | 14.5 | 29.0 | 0.00 | 1.42 | 0.51 | 81 | 1015.1 |
| 20260506111003 | 14 | 231 | 6.4 | 16.1 | 0.00 | 1.42 | 0.51 | 79 | 1015.0 |
| 20260506110501 | 14 | 241 | 4.8 | 12.9 | 0.00 | 1.42 | 0.51 | 79 | 1014.9 |
| 20260506110008 | 14 | 249 | 6.4 | 12.9 | 0.00 | 1.42 | 0.51 | 79 | 1014.9 |
| 20260506105502 | 14 | 223 | 8.0 | 19.3 | 0.00 | 1.42 | 0.51 | 78 | 1019.5 |
| 20260506105000 | 14 | 267 | 8.0 | 19.3 | 0.00 | 1.42 | 0.51 | 79 | 1014.9 |
| 20260506104504 | 14 | 259 | 8.0 | 16.1 | 0.00 | 1.42 | 0.51 | 78 | 1019.4 |
| 20260506104501 | 14 | 226 | 8.0 | 16.1 | 0.00 | 1.42 | 0.51 | 78 | 1014.8 |
| 20260506104002 | 14 | 281 | 8.0 | 20.9 | 0.00 | 1.42 | 0.51 | 78 | 1019.4 |
| 20260506103502 | 14 | 211 | 6.4 | 20.9 | 0.00 | 1.42 | 0.51 | 78 | 1019.4 |
| 20260506103005 | 14 | 259 | 8.0 | 22.5 | 0.00 | 1.42 | 0.51 | 81 | 1019.3 |
| 20260506103003 | 14 | 259 | 4.8 | 22.5 | 0.00 | 1.42 | 0.51 | 81 | 1014.8 |
| 20260506102502 | 13 | 299 | 6.4 | 22.5 | 0.00 | 1.42 | 0.51 | 81 | 1014.8 |
| 20260506102004 | 13 | 293 | 8.0 | 17.7 | 0.00 | 1.42 | 0.51 | 85 | 1019.4 |
| 20260506102002 | 13 | 293 | 6.4 | 17.7 | 0.00 | 1.42 | 0.51 | 85 | 1014.9 |
| 20260506101502 | 13 | 233 | 6.4 | 16.1 | 0.00 | 1.42 | 0.51 | 90 | 1014.8 |
| 20260506101003 | 12 | 288 | 4.8 | 14.5 | 0.00 | 1.42 | 0.51 | 92 | 1014.9 |
| 20260506100502 | 12 | 253 | 4.8 | 12.9 | 0.03 | 1.42 | 0.51 | 93 | 1019.4 |
| 20260506100008 | 12 | 288 | 3.2 | 12.9 | 0.05 | 1.42 | 0.51 | 93 | 1014.9 |
| 20260506100006 | 12 | 276 | 4.8 | 12.9 | 0.05 | 1.42 | 0.51 | 93 | 1019.4 |
| 20260506095502 | 12 | 149 | 4.8 | 12.9 | 0.05 | 1.42 | 0.51 | 94 | 1019.3 |
| 20260506095002 | 12 | 239 | 3.2 | 8.0 | 0.05 | 1.42 | 0.51 | 94 | 1019.4 |
| 20260506094505 | 12 | 221 | 3.2 | 12.9 | 0.08 | 1.42 | 0.51 | 94 | 1014.8 |
| 20260506094503 | 12 | 221 | 4.8 | 12.9 | 0.08 | 1.42 | 0.51 | 94 | 1019.3 |
| 20260506094002 | 12 | 221 | 6.4 | 12.9 | 0.10 | 1.42 | 0.51 | 93 | 1019.4 |
| 20260506093501 | 11 | 299 | 4.8 | 17.7 | 0.13 | 1.42 | 0.51 | 93 | 1014.8 |
| 20260506093002 | 11 | 228 | 8.0 | 17.7 | 0.13 | 1.42 | 0.51 | 93 | 1019.3 |
| 20260506092503 | 11 | 303 | 8.0 | 19.3 | 0.13 | 1.42 | 0.51 | 92 | 1019.4 |
| 20260506092004 | 11 | 307 | 8.0 | 20.9 | 0.13 | 1.42 | 0.51 | 92 | 1019.4 |
| 20260506092001 | 11 | 307 | 4.8 | 20.9 | 0.13 | 1.42 | 0.51 | 92 | 1014.8 |
| 20260506091502 | 11 | 248 | 11.3 | 20.9 | 0.15 | 1.42 | 0.51 | 90 | 1014.8 |
| 20260506091001 | 12 | 274 | 3.2 | 17.7 | 0.15 | 1.42 | 0.51 | 89 | 1014.8 |
| 20260506090503 | 13 | 216 | 4.8 | 17.7 | 0.15 | 1.40 | 0.51 | 82 | 1014.8 |
| 20260506090006 | 12 | 275 | 3.2 | 8.0 | 0.15 | 1.37 | 0.48 | 82 | 1014.6 |
| 20260506085501 | 12 | 296 | 3.2 | 9.7 | 0.18 | 1.40 | 0.46 | 82 | 1019.1 |
| 20260506085002 | 12 | 263 | 4.8 | 11.3 | 0.18 | 1.37 | 0.43 | 81 | 1019.1 |
| 20260506084502 | 12 | 304 | 4.8 | 11.3 | 0.15 | 1.37 | 0.43 | 82 | 1014.6 |
| 20260506084004 | 12 | 288 | 3.2 | 8.0 | 0.15 | 1.37 | 0.43 | 81 | 1019.1 |
| 20260506084002 | 12 | 288 | 3.2 | 8.0 | 0.15 | 1.37 | 0.43 | 81 | 1014.5 |
| 20260506083502 | 12 | 266 | 3.2 | 12.9 | 0.15 | 1.35 | 0.41 | 82 | 1014.5 |
| 20260506083003 | 12 | 264 | 6.4 | 16.1 | 0.15 | 1.35 | 0.41 | 81 | 1019.0 |
| 20260506083001 | 12 | 264 | 4.8 | 16.1 | 0.15 | 1.35 | 0.41 | 81 | 1014.5 |
| 20260506082502 | 12 | 249 | 8.0 | 17.7 | 0.15 | 1.35 | 0.41 | 81 | 1019.0 |
| 20260506082003 | 12 | 287 | 8.0 | 17.7 | 0.13 | 1.32 | 0.38 | 81 | 1019.0 |
| 20260506082001 | 12 | 287 | 9.7 | 17.7 | 0.13 | 1.32 | 0.38 | 81 | 1014.5 |
| 20260506081502 | 12 | 288 | 8.0 | 16.1 | 0.13 | 1.32 | 0.38 | 82 | 1019.0 |
| 20260506081005 | 12 | 297 | 4.8 | 16.1 | 0.13 | 1.32 | 0.38 | 81 | 1018.9 |
| 20260506081001 | 12 | 297 | 8.0 | 16.1 | 0.13 | 1.32 | 0.38 | 81 | 1014.4 |
| 20260506080503 | 12 | 269 | 3.2 | 9.7 | 0.08 | 1.27 | 0.33 | 81 | 1018.9 |
| 20260506073503 | 12 | 264 | 1.6 | 8.0 | 0.00 | 1.45 | 0.25 | 82 | 1018.7 |
| 20260506073002 | 12 | 200 | 0.0 | 4.8 | 0.00 | 1.45 | 0.25 | 82 | 1018.7 |
| 20260506072504 | 12 | 346 | 0.0 | 3.2 | 0.00 | 1.42 | 0.25 | 83 | 1014.2 |
| 20260506072502 | 12 | 346 | 0.0 | 3.2 | 0.00 | 1.45 | 0.25 | 83 | 1018.7 |
| 20260506072002 | 12 | 128 | 1.6 | 4.8 | 0.00 | 1.45 | 0.25 | 83 | 1018.7 |
| 20260506071502 | 12 | 108 | 0.0 | 4.8 | 0.00 | 1.42 | 0.25 | 83 | 1014.2 |
| 20260506071003 | 12 | 145 | 1.6 | 4.8 | 0.00 | 1.45 | 0.25 | 83 | 1018.7 |
| 20260506071000 | 12 | 145 | 0.0 | 4.8 | 0.00 | 1.42 | 0.25 | 83 | 1014.1 |
| 20260506070502 | 12 | 117 | 1.6 | 4.8 | 0.00 | 1.45 | 0.25 | 83 | 1018.5 |